• In Czech Republic
  • List of Countries
  • For 7 days
  • Water Temperature
  • Satellite Maps
  • Weather Map
  • Weather Widgets
  • user-avatar
    Login

    Hourly Weather Baena

    Today, 28 May, Monday

    Time Temperature Precipitation Wind Pressure Humidity
    00:00 +16°C° 0 mm 2 mps 725 mmHg 83%
    01:00 +15°C° 0 mm 2 mps 724 mmHg 85%
    02:00 +15°C° 0 mm 1 mps 724 mmHg 86%
    03:00 +15°C° 0 mm 1 mps 724 mmHg 87%
    04:00 +15°C° 0 mm 1 mps 724 mmHg 87%
    05:00 +15°C° 0 mm 1 mps 724 mmHg 87%
    06:00 +15°C° 0 mm 1 mps 724 mmHg 87%
    07:00 +16°C° 0 mm 1 mps 725 mmHg 82%
    08:00 +17°C° 0 mm 2 mps 725 mmHg 77%
    09:00 +19°C° 0 mm 2 mps 725 mmHg 72%
    10:00 +20°C° 0.2 mm 2 mps 725 mmHg 66%
    11:00 +21°C° 0.2 mm 3 mps 725 mmHg 60%
    12:00 +24°C° 0.2 mm 3 mps 724 mmHg 53%
    13:00 +23°C° 0.2 mm 4 mps 724 mmHg 52%
    14:00 +23°C° 0.2 mm 4 mps 724 mmHg 51%
    15:00 +25°C° 0.2 mm 5 mps 724 mmHg 50%
    16:00 +23°C° 0.2 mm 5 mps 724 mmHg 51%
    17:00 +23°C° 0.2 mm 5 mps 724 mmHg 53%
    18:00 +22°C° 0.2 mm 5 mps 724 mmHg 55%
    19:00 +20°C° 0 mm 4 mps 724 mmHg 60%
    20:00 +19°C° 0 mm 3 mps 724 mmHg 65%
    21:00 +18°C° 0 mm 3 mps 725 mmHg 69%
    22:00 +17°C° 0 mm 2 mps 725 mmHg 72%
    23:00 +16°C° 0 mm 2 mps 725 mmHg 75%

    Tomorrow, 29 May, Tuesday

    Time Temperature Precipitation Wind Pressure Humidity
    00:00 +16°C° 0 mm 1 mps 725 mmHg 78%
    01:00 +15°C° 0 mm 1 mps 725 mmHg 80%
    02:00 +15°C° 0 mm 1 mps 724 mmHg 82%
    03:00 +14°C° 0 mm 1 mps 724 mmHg 85%
    04:00 +14°C° 0 mm 1 mps 724 mmHg 85%
    05:00 +14°C° 0 mm 1 mps 724 mmHg 85%
    06:00 +14°C° 0 mm 1 mps 724 mmHg 85%
    07:00 +16°C° 0 mm 1 mps 724 mmHg 79%
    08:00 +17°C° 0 mm 2 mps 725 mmHg 73%
    09:00 +19°C° 0 mm 3 mps 725 mmHg 66%
    10:00 +20°C° 0 mm 3 mps 725 mmHg 61%
    11:00 +20°C° 0 mm 3 mps 725 mmHg 56%
    12:00 +21°C° 0 mm 4 mps 724 mmHg 51%
    13:00 +22°C° 0 mm 4 mps 724 mmHg 51%
    14:00 +22°C° 0 mm 5 mps 724 mmHg 50%
    15:00 +22°C° 0 mm 6 mps 724 mmHg 50%
    16:00 +21°C° 0 mm 6 mps 723 mmHg 53%
    17:00 +20°C° 0 mm 6 mps 723 mmHg 57%
    18:00 +20°C° 0 mm 6 mps 723 mmHg 60%
    19:00 +17°C° 0 mm 5 mps 724 mmHg 65%
    20:00 +17°C° 0 mm 4 mps 724 mmHg 71%
    21:00 +16°C° 0 mm 3 mps 725 mmHg 76%
    22:00 +14°C° 0 mm 3 mps 724 mmHg 80%
    23:00 +15°C° 0 mm 2 mps 724 mmHg 84%

    Day after tomorrow, 30 May, Wednesday

    Time Temperature Precipitation Wind Pressure Humidity
    00:00 +14°C° 0 mm 2 mps 724 mmHg 88%
    01:00 +14°C° 0.1 mm 2 mps 724 mmHg 89%
    02:00 +14°C° 0.1 mm 2 mps 724 mmHg 89%
    03:00 +14°C° 0.1 mm 1 mps 724 mmHg 90%
    04:00 +14°C° 0 mm 1 mps 724 mmHg 89%
    05:00 +14°C° 0 mm 1 mps 724 mmHg 89%
    06:00 +14°C° 0 mm 1 mps 724 mmHg 88%
    07:00 +15°C° 0.1 mm 2 mps 724 mmHg 82%
    08:00 +16°C° 0.1 mm 2 mps 725 mmHg 76%
    09:00 +17°C° 0.1 mm 2 mps 725 mmHg 70%
    10:00 +18°C° 0.1 mm 3 mps 725 mmHg 65%
    11:00 +19°C° 0.1 mm 3 mps 725 mmHg 61%
    12:00 +20°C° 0.1 mm 4 mps 725 mmHg 56%
    13:00 +21°C° 0.1 mm 4 mps 725 mmHg 54%
    14:00 +22°C° 0.1 mm 4 mps 725 mmHg 52%
    15:00 +22°C° 0.1 mm 5 mps 725 mmHg 50%
    16:00 +22°C° 0 mm 4 mps 725 mmHg 52%
    17:00 +21°C° 0 mm 4 mps 725 mmHg 53%
    18:00 +21°C° 0 mm 4 mps 725 mmHg 54%
    19:00 +20°C° 0 mm 4 mps 725 mmHg 60%
    20:00 +18°C° 0 mm 3 mps 726 mmHg 66%
    21:00 +17°C° 0 mm 2 mps 726 mmHg 71%
    22:00 +16°C° 0 mm 2 mps 726 mmHg 76%
    23:00 +16°C° 0 mm 2 mps 726 mmHg 80%

    31 May, Thursday

    Time Temperature Precipitation Wind Pressure Humidity
    00:00 +15°C° 0 mm 1 mps 726 mmHg 84%
    01:00 +15°C° 0 mm 1 mps 726 mmHg 87%
    02:00 +14°C° 0 mm 1 mps 726 mmHg 89%
    03:00 +14°C° 0 mm 1 mps 725 mmHg 91%
    04:00 +14°C° 0 mm 1 mps 726 mmHg 90%
    05:00 +14°C° 0 mm 1 mps 726 mmHg 90%
    06:00 +14°C° 0 mm 1 mps 726 mmHg 89%
    07:00 +16°C° 0 mm 1 mps 726 mmHg 80%
    08:00 +19°C° 0 mm 1 mps 727 mmHg 72%
    09:00 +21°C° 0 mm 1 mps 727 mmHg 63%
    10:00 +22°C° 0 mm 1 mps 727 mmHg 57%
    11:00 +24°C° 0 mm 1 mps 727 mmHg 50%
    12:00 +25°C° 0 mm 2 mps 727 mmHg 44%
    13:00 +26°C° 0 mm 2 mps 727 mmHg 41%
    14:00 +27°C° 0 mm 2 mps 727 mmHg 39%
    15:00 +27°C° 0 mm 2 mps 726 mmHg 37%
    16:00 +27°C° 0 mm 2 mps 726 mmHg 38%
    17:00 +27°C° 0 mm 3 mps 726 mmHg 39%
    18:00 +26°C° 0 mm 3 mps 726 mmHg 40%
    19:00 +25°C° 0 mm 2 mps 727 mmHg 44%
    20:00 +23°C° 0 mm 2 mps 727 mmHg 49%
    21:00 +21°C° 0 mm 1 mps 727 mmHg 54%
    22:00 +21°C° 0 mm 1 mps 727 mmHg 56%
    23:00 +20°C° 0 mm 1 mps 727 mmHg 59%

    1 June, Friday

    Time Temperature Precipitation Wind Pressure Humidity
    00:00 +19°C° 0 mm 1 mps 727 mmHg 61%
    01:00 +19°C° 0 mm 1 mps 727 mmHg 63%
    02:00 +18°C° 0 mm 1 mps 727 mmHg 65%
    03:00 +18°C° 0 mm 1 mps 726 mmHg 68%
    04:00 +18°C° 0 mm 1 mps 726 mmHg 68%
    05:00 +18°C° 0 mm 1 mps 726 mmHg 69%
    06:00 +18°C° 0 mm 1 mps 727 mmHg 70%
    07:00 +20°C° 0 mm 1 mps 727 mmHg 62%
    08:00 +23°C° 0 mm 1 mps 727 mmHg 55%
    09:00 +25°C° 0 mm 1 mps 727 mmHg 47%
    10:00 +26°C° 0 mm 1 mps 727 mmHg 42%
    11:00 +27°C° 0 mm 1 mps 727 mmHg 38%
    12:00 +29°C° 0 mm 2 mps 727 mmHg 33%
    13:00 +29°C° 0 mm 2 mps 726 mmHg 32%
    14:00 +30°C° 0 mm 2 mps 726 mmHg 30%
    15:00 +30°C° 0 mm 2 mps 725 mmHg 29%
    16:00 +30°C° 0 mm 2 mps 725 mmHg 30%
    17:00 +30°C° 0 mm 2 mps 725 mmHg 31%
    18:00 +29°C° 0 mm 2 mps 725 mmHg 33%
    19:00 +27°C° 0 mm 2 mps 725 mmHg 37%
    20:00 +25°C° 0 mm 1 mps 725 mmHg 41%
    21:00 +23°C° 0 mm 1 mps 726 mmHg 46%
    22:00 +23°C° 0 mm 1 mps 725 mmHg 48%
    23:00 +22°C° 0 mm 1 mps 725 mmHg 50%

    2 June, Saturday

    Time Temperature Precipitation Wind Pressure Humidity
    00:00 +21°C° 0 mm 1 mps 725 mmHg 52%
    01:00 +21°C° 0 mm 1 mps 725 mmHg 53%
    02:00 +20°C° 0 mm 1 mps 725 mmHg 55%
    03:00 +20°C° 0 mm 1 mps 724 mmHg 56%
    04:00 +20°C° 0 mm 1 mps 724 mmHg 57%
    05:00 +20°C° 0 mm 1 mps 724 mmHg 57%
    06:00 +20°C° 0 mm 1 mps 725 mmHg 58%
    07:00 +22°C° 0 mm 1 mps 725 mmHg 51%
    08:00 +24°C° 0 mm 1 mps 725 mmHg 44%
    09:00 +26°C° 0 mm 1 mps 725 mmHg 37%
    10:00 +28°C° 0 mm 1 mps 725 mmHg 34%
    11:00 +29°C° 0 mm 2 mps 725 mmHg 31%
    12:00 +31°C° 0 mm 2 mps 724 mmHg 28%
    13:00 +31°C° 0 mm 2 mps 724 mmHg 27%
    14:00 +32°C° 0 mm 2 mps 724 mmHg 27%
    15:00 +33°C° 0 mm 3 mps 723 mmHg 27%
    16:00 +31°C° 0.1 mm 3 mps 723 mmHg 29%
    17:00 +31°C° 0.1 mm 3 mps 723 mmHg 31%
    18:00 +30°C° 0.1 mm 3 mps 723 mmHg 34%
    19:00 +28°C° 0.2 mm 3 mps 723 mmHg 40%
    20:00 +26°C° 0.2 mm 2 mps 723 mmHg 46%
    21:00 +23°C° 0.2 mm 2 mps 724 mmHg 53%
    22:00 +23°C° 0.1 mm 2 mps 724 mmHg 55%
    23:00 +22°C° 0.1 mm 1 mps 724 mmHg 57%
    Show more